#timestamp,LO_Frequency,Hit,StdDev 
1682053215.1,286046994.2,P
1682053216.0,286046994.2,P
1682053235.8,286046996.0,N
1682053255.7,286046993.9,Y
1682053275.5,286046999.8,P
1682053295.3,286046996.6,N
1682053315.2,286046995.8,N
1682053335.0,286046997.3,N
1682053335.9,286046997.3,N
1682053355.8,286046995.0,N
1682053375.6,286046993.9,Y
1682053395.4,286046996.6,P
1682053415.3,286046996.8,P
1682053435.1,286046995.0,P
1682053455.9,286047009.1,Y
1682053475.7,286047008.2,P
1682053495.5,286047004.9,N
1682053515.4,286047008.3,N
1682053535.2,286047008.6,N
1682053555.1,286047005.2,N
1682053556.0,286047005.2,N
1682053575.8,286047003.2,N
1682053595.6,286047005.1,N
1682053615.5,286047010.6,N
1682053635.3,286047008.1,N
1682053655.1,286047010.7,N
1682053675.9,286047013.7,Y
1682053695.7,286047007.6,P
1682053715.6,286047012.0,P
1682053735.4,286047015.4,P
1682053755.2,286047015.8,Y
1682053775.1,286047008.9,P
1682053776.0,286047008.9,P
1682053795.8,286047007.8,P
1682053815.7,286047004.4,Y
1682053835.5,286046994.4,P
1682053855.4,286046994.0,N
1682053875.2,286046992.8,N
1682053895.0,286046992.8,N
1682053895.9,286046992.8,N
1682053915.8,286046995.9,N
1682053935.6,286046992.0,N
1682053955.4,286046995.5,N
1682053975.3,286047000.9,N
1682053995.1,286046995.6,N
1682054015.9,286046993.2,N
1682054035.7,286046990.9,N
1682054055.5,286046984.2,Y
1682054075.4,286046991.9,P
1682054095.2,286046996.9,N
1682054115.0,286046993.9,N
1682054116.0,286046993.9,Y
1682054135.8,286046998.4,P
1682054155.6,286046998.2,N
1682054175.5,286047005.1,N
1682054195.3,286047009.0,N
1682054215.1,286047008.2,N
1682054235.9,286047014.3,N
1682054255.7,286047009.3,N
1682054275.6,286047010.3,N
1682054295.4,286047010.7,N
1682054315.2,286047007.5,N
1682054335.1,286047008.4,N
1682054336.0,286047008.4,N
1682054355.8,286047014.6,N
1682054375.6,286047024.0,Y
1682054395.5,286047014.1,P
1682054415.3,286047018.2,P
1682054435.2,286047020.5,P
1682054455.9,286047027.7,Y
1682054475.7,286047022.6,P
1682054495.6,286047030.2,P
1682054515.4,286047036.8,P
1682054535.3,286047044.5,Y
1682054555.1,286047021.9,P
1682054556.0,286047021.9,P
1682054575.8,286047018.2,P
1682054595.7,286047014.9,Y
1682054615.5,286046985.7,P
1682054635.3,286046984.2,N
1682054655.2,286046988.3,N
1682054675.0,286046994.5,N
1682054675.9,286046994.5,N
1682054695.8,286046997.0,N
1682054715.6,286047001.5,N
1682054735.5,286046995.6,N
1682054755.3,286046990.4,N
1682054775.1,286046991.7,N
1682054795.9,286046993.8,N
1682054815.7,286046989.3,N
1682054835.5,286046988.0,N
1682054855.4,286046993.0,N
1682054875.2,286046992.6,N
1682054895.1,286046994.8,N
1682054896.0,286046994.8,N
1682054915.8,286046994.3,N
1682054935.6,286046992.8,N
1682054955.5,286046982.1,N
1682054975.3,286046978.5,N
1682054995.1,286046980.8,N
1682055015.9,286046976.2,N
1682055035.7,286046971.8,Y
1682055055.6,286046979.3,P
1682055075.4,286046979.9,P
1682055095.2,286046978.1,P
1682055115.1,286046978.8,Y
1682055116.0,286046978.8,P
1682055135.8,286046996.3,N
1682055155.6,286046995.8,N
1682055175.5,286046991.9,N
1682055195.3,286046990.2,N
1682055215.2,286046993.0,N
1682055235.9,286046997.6,N
1682055255.7,286046990.5,N
1682055275.6,286046989.0,N
1682055295.4,286046991.2,N
1682055315.2,286046991.5,N
1682055335.1,286046996.3,N
1682055336.0,286046996.3,N
1682055355.8,286046992.2,N
1682055375.7,286046994.7,N
1682055395.5,286046991.2,N
1682055415.3,286046994.5,N
1682055435.2,286047000.5,N
1682055455.0,286047010.2,N
1682055455.9,286047010.2,N
1682055475.8,286047006.5,N
1682055495.6,286047000.7,N
1682055515.4,286046995.5,N
1682055535.3,286046992.7,N
1682055555.1,286046995.8,N
1682055556.0,286046995.8,N
1682055575.8,286046991.2,N
1682055595.7,286046986.3,N
1682055615.5,286046985.2,N
1682055635.3,286046988.3,N
1682055655.2,286046990.6,N
1682055675.0,286046994.3,N
1682055675.9,286046994.3,N
1682055695.8,286046993.0,N
1682055715.6,286047000.9,N
1682055735.4,286046997.4,N
1682055755.3,286046993.4,N
1682055775.1,286046989.1,N
1682055795.9,286046989.4,N
1682055815.7,286046983.5,N
1682055835.5,286046977.8,Y
1682055855.4,286046988.6,P
1682055875.2,286046986.9,P
1682055895.0,286046984.8,P
1682055895.9,286046984.8,Y
1682055915.8,286046997.1,P
1682055935.6,286046997.8,N
1682055955.5,286046997.9,N
1682055975.3,286046993.0,N
1682055995.1,286046987.0,Y
1682056015.9,286046994.8,P
1682056035.7,286046997.3,P
1682056055.5,286047000.2,N
1682056075.4,286047007.1,Y
1682056095.2,286047011.3,P
1682056115.1,286047004.5,N
1682056116.0,286047004.5,N
1682056135.8,286047007.1,N
1682056155.6,286047008.8,N
1682056175.5,286047002.8,N
1682056195.3,286046998.8,N
1682056215.1,286046995.9,N
1682056235.9,286046980.0,Y
1682056255.7,286046974.0,P
1682056275.6,286046975.6,N
1682056295.4,286046983.4,N
1682056315.2,286046980.2,N
1682056335.1,286046975.7,N
1682056336.0,286046975.7,N
1682056355.8,286046974.9,N
1682056375.7,286046971.3,Y
1682056395.5,286046986.3,P
1682056415.3,286046982.5,P
1682056435.2,286046979.9,P
1682056455.9,286046981.7,Y
1682056475.7,286046999.4,P
1682056495.6,286046998.9,N
1682056515.4,286046996.0,N
1682056535.3,286046997.9,N
1682056555.1,286046990.4,N
1682056556.0,286046990.4,N
1682056575.8,286046986.4,N
1682056595.7,286046980.1,Y
1682056615.5,286046983.2,P
1682056635.3,286046982.6,P
1682056655.2,286046980.8,P
1682056675.0,286046981.5,Y
1682056675.9,286046981.5,P
1682056695.8,286046998.2,N
1682056715.6,286047002.5,N
1682056735.4,286047013.5,N
1682056755.3,286047016.7,N
1682056775.1,286047011.3,N
1682056795.9,286047004.1,N
